Tracking 20093 objects as of 16-Dec-2019
HD Live streaming from Space Station
objects crossing your sky now

IRIDIUM 33 DEB

Track IRIDIUM 33 DEB now!
10-day predictions


NORAD ID: 36025
Int'l Code: 1997-051VG
Perigee: 675.2 km
Apogee: 745.5 km
Inclination: 86.6 °
Period: 98.8 minutes
Semi major axis: 7081 km
RCS: 0.0093 m2 (small)
Launch date: September 14, 1997
Source: United States (US)
Launch site: TYURATAM MISSILE AND SPACE COMPLEX (TTMTR)

Note: This is SATELLITE DEBRIS
aabbcc
Your satellite tracking list
Your tracking list is empty




NASA's NSSDC Master Catalog

Two Line Element Set (TLE):
1 36025U 97051VG  19349.96961196  .00004008  00000-0  87382-3 0  9994
2 36025  86.5572 345.7902 0049623  83.1566 277.5285 14.56908583544800
Source of the keplerian elements: AFSPC